Hourly Data Report for September 01, 2012

HALIFAX STANFIELD INT'L A
NOVA SCOTIA

44°52'48.060" N
63°30'00.050" W
145.40 m
8202250
71395
YHZ

Download Data

Hourly Data (September 2012)
Hourly Data Report for September 1, 2012
TIME
LST
Temp Definition
°C
Dew Point Definition
°C
Rel Hum Definition
%
Precip. Amount Definition
mm

Wind Dir Definition
10's deg

Wind Spd Definition
km/h
Visibility Definition
km
Stn Press Definition
kPa
Hmdx Definition


Wind Chill Definition


Weather Definition


00:00 18.9 16.7 87   28 17 24.1 98.84     Mostly Cloudy
01:00 19.1 16.6 85   29 22 24.1 98.90     Mainly Clear
02:00 18.2 14.6 80   30 24 24.1 98.97     Clear
03:00 17.4 13.8 79   31 26 24.1 99.01     Clear
04:00 15.8 13.6 87   32 20 24.1 99.06     Clear
05:00 14.7 12.1 84   32 19 24.1 99.15     Clear
06:00 14.3 10.8 79   32 22 24.1 99.28     Mainly Clear
07:00 14.6 10.7 77   33 20 24.1 99.38     Mainly Clear
08:00 15.8 11.2 74   34 28 24.1 99.46     Mainly Clear
09:00 17.3 11.4 68   5 28 24.1 99.52     Mostly Cloudy
10:00 18.2 11.0 63   36 26 24.1 99.60     Mostly Cloudy
11:00 18.4 9.8 57   35 28 24.1 99.65     Mostly Cloudy
12:00 19.0 9.3 53   36 30 24.1 99.68     Mostly Cloudy
13:00 19.6 8.8 50   34 35 24.1 99.72     Mainly Clear
14:00 19.9 9.3 50   34 30 24.1 99.76     Mainly Clear
15:00 19.7 9.4 51   36 28 24.1 99.79     Mainly Clear
16:00 18.5 9.8 57   36 26 24.1 99.85     Mainly Clear
17:00 17.4 9.2 59   36 22 24.1 99.94     Mainly Clear
18:00 15.8 8.8 63   2 20 24.1 100.03     Clear
19:00 13.2 6.3 63   3 11 24.1 100.10     Clear
20:00 11.7 5.5 66   3 11 24.1 100.19     Clear
21:00 11.9 5.4 64   9 4 24.1 100.28     Clear
22:00 11.4 5.7 68   3 6 24.1 100.31     Clear
23:00 10.6 5.0 68   35 4 24.1 100.34     Clear

Notes on Data Quality.

Legend

  • E = Estimated
  • M = Missing
  • NA = Not Available*
  • [empty] = Indicates an unobserved value
Date modified: